| time (UTC) | temp F | wind direction | speed MPH | gust MPH | rain 1hr in | rain 24hr in | rain mn in | humidity % | barometer mb |
| 20260504100526 | 49 | 184 | 4.0 | 7.0 | 0.00 | 0.00 | 0.00 | 59 | 1014.6 |
| 20260504081552 | 48 | 176 | 2.0 | 3.0 | 0.00 | 0.00 | 0.00 | 52 | 1015.0 |
| 20260504081030 | 48 | 197 | 1.0 | 2.0 | 0.00 | 0.00 | 0.00 | 51 | 1015.1 |
| 20260504080530 | 48 | 187 | 1.0 | 2.0 | 0.00 | 0.00 | 0.00 | 51 | 1015.0 |
| 20260504050534 | 45 | 191 | 2.0 | 4.0 | 0.00 | 0.00 | 0.00 | 58 | 1015.6 |
| 20260504045529 | 44 | 203 | 2.0 | 4.0 | 0.00 | 0.00 | 0.00 | 60 | 1015.6 |
| 20260504045029 | 45 | 183 | 2.0 | 3.0 | 0.00 | 0.00 | 0.00 | 61 | 1015.5 |
| 20260504044545 | 45 | 202 | 1.0 | 3.0 | 0.00 | 0.00 | 0.00 | 59 | 1015.5 |
| 20260504044029 | 44 | 195 | 2.0 | 3.0 | 0.00 | 0.00 | 0.00 | 60 | 1015.6 |
| 20260504043529 | 43 | 188 | 2.0 | 3.0 | 0.00 | 0.00 | 0.00 | 64 | 1015.7 |
| 20260504043043 | 42 | 182 | 1.0 | 2.0 | 0.00 | 0.00 | 0.00 | 65 | 1015.5 |
| 20260504042530 | 42 | 189 | 1.0 | 2.0 | 0.00 | 0.00 | 0.00 | 68 | 1015.4 |
| 20260504042031 | 42 | 196 | 1.0 | 3.0 | 0.00 | 0.00 | 0.00 | 67 | 1015.3 |
| 20260504041541 | 41 | 189 | 1.0 | 3.0 | 0.00 | 0.00 | 0.00 | 70 | 1015.2 |
| 20260504041031 | 41 | 140 | 1.0 | 2.0 | 0.00 | 0.00 | 0.00 | 73 | 1015.3 |
| 20260504040530 | 42 | 0 | 0.0 | 1.0 | 0.00 | 0.00 | 0.00 | 68 | 1015.2 |
| 20260504040044 | 42 | 140 | 1.0 | 1.0 | 0.00 | 0.00 | 0.00 | 70 | 1015.2 |
| 20260504035533 | 42 | 140 | 1.0 | 2.0 | 0.00 | 0.00 | 0.00 | 68 | 1015.1 |
| 20260504035030 | 42 | 140 | 2.0 | 2.0 | 0.00 | 0.00 | 0.00 | 69 | 1015.2 |
| 20260504034544 | 43 | 63 | 0.0 | 2.0 | 0.00 | 0.00 | 0.00 | 72 | 1015.1 |
| 20260504034029 | 43 | 0 | 0.0 | 2.0 | 0.00 | 0.00 | 0.00 | 72 | 1015.1 |
| 20260504033529 | 43 | 0 | 0.0 | 3.0 | 0.00 | 0.00 | 0.00 | 69 | 1015.1 |
| 20260504033048 | 44 | 39 | 2.0 | 3.0 | 0.00 | 0.00 | 0.00 | 68 | 1015.1 |
| 20260504032530 | 45 | 45 | 0.0 | 2.0 | 0.00 | 0.00 | 0.00 | 57 | 1015.1 |
| 20260504032030 | 45 | 173 | 1.0 | 1.0 | 0.00 | 0.00 | 0.00 | 60 | 1015.2 |
| 20260504031541 | 45 | 173 | 0.0 | 1.0 | 0.00 | 0.00 | 0.00 | 59 | 1015.2 |
| 20260504031030 | 44 | 173 | 0.0 | 1.0 | 0.00 | 0.00 | 0.00 | 60 | 1015.1 |
| 20260504030530 | 43 | 173 | 1.0 | 2.0 | 0.00 | 0.00 | 0.00 | 65 | 1015.1 |
| 20260504030041 | 44 | 173 | 1.0 | 2.0 | 0.00 | 0.00 | 0.00 | 66 | 1015.1 |
| 20260504025530 | 44 | 0 | 0.0 | 1.0 | 0.00 | 0.00 | 0.00 | 60 | 1015.0 |
| 20260504025030 | 43 | 173 | 1.0 | 1.0 | 0.00 | 0.00 | 0.00 | 62 | 1015.0 |
| 20260504024553 | 43 | 173 | 1.0 | 1.0 | 0.00 | 0.00 | 0.00 | 68 | 1015.1 |
| 20260504024029 | 44 | 173 | 1.0 | 2.0 | 0.00 | 0.00 | 0.00 | 66 | 1015.1 |
| 20260504023530 | 44 | 173 | 1.0 | 1.0 | 0.00 | 0.00 | 0.00 | 64 | 1015.0 |
| 20260504023038 | 44 | 173 | 0.0 | 0.0 | 0.00 | 0.00 | 0.00 | 60 | 1015.0 |
| 20260504022530 | 44 | 0 | 0.0 | 2.0 | 0.00 | 0.00 | 0.00 | 60 | 1015.0 |
| 20260504022029 | 44 | 0 | 0.0 | 2.0 | 0.00 | 0.00 | 0.00 | 63 | 1015.0 |
| 20260504021551 | 45 | 173 | 0.0 | 2.0 | 0.00 | 0.00 | 0.00 | 63 | 1015.0 |
| 20260504021029 | 45 | 173 | 0.0 | 2.0 | 0.00 | 0.00 | 0.00 | 61 | 1015.0 |
| 20260504020529 | 46 | 173 | 0.0 | 2.0 | 0.00 | 0.00 | 0.00 | 60 | 1014.9 |
| 20260504020048 | 46 | 0 | 0.0 | 2.0 | 0.00 | 0.00 | 0.00 | 57 | 1014.8 |
| 20260504015529 | 46 | 173 | 1.0 | 1.0 | 0.00 | 0.00 | 0.00 | 57 | 1014.9 |
| 20260504015027 | 46 | 173 | 1.0 | 1.0 | 0.00 | 0.00 | 0.00 | 58 | 1014.8 |
| 20260504014540 | 46 | 173 | 1.0 | 1.0 | 0.00 | 0.00 | 0.00 | 60 | 1014.8 |
| 20260504014030 | 46 | 173 | 1.0 | 1.0 | 0.00 | 0.00 | 0.00 | 60 | 1014.8 |
| 20260504013529 | 46 | 173 | 0.0 | 2.0 | 0.00 | 0.00 | 0.00 | 60 | 1014.9 |
| 20260504013047 | 46 | 173 | 1.0 | 2.0 | 0.00 | 0.00 | 0.00 | 59 | 1015.0 |
| 20260504012530 | 46 | 173 | 1.0 | 3.0 | 0.00 | 0.00 | 0.00 | 59 | 1014.9 |
| 20260504012029 | 47 | 173 | 2.0 | 3.0 | 0.00 | 0.00 | 0.00 | 58 | 1014.7 |
| 20260504011541 | 48 | 287 | 0.0 | 2.0 | 0.00 | 0.00 | 0.00 | 58 | 1014.7 |
| 20260504011029 | 48 | 287 | 1.0 | 2.0 | 0.00 | 0.00 | 0.00 | 55 | 1014.6 |
| 20260504010529 | 48 | 287 | 1.0 | 1.0 | 0.00 | 0.00 | 0.00 | 55 | 1014.6 |
| 20260504010038 | 49 | 287 | 0.0 | 1.0 | 0.00 | 0.00 | 0.00 | 54 | 1014.5 |
| 20260504005530 | 49 | 287 | 1.0 | 1.0 | 0.00 | 0.00 | 0.00 | 53 | 1014.4 |
| 20260504005030 | 49 | 287 | 1.0 | 2.0 | 0.00 | 0.00 | 0.00 | 55 | 1014.4 |
| 20260504004559 | 50 | 287 | 1.0 | 2.0 | 0.00 | 0.00 | 0.00 | 52 | 1014.4 |
| 20260504004030 | 50 | 287 | 1.0 | 2.0 | 0.00 | 0.00 | 0.00 | 49 | 1014.4 |
| 20260504003529 | 51 | 287 | 1.0 | 2.0 | 0.00 | 0.00 | 0.00 | 47 | 1014.4 |
| 20260504003040 | 51 | 287 | 0.0 | 2.0 | 0.00 | 0.00 | 0.00 | 46 | 1014.4 |
| 20260504002529 | 51 | 287 | 0.0 | 2.0 | 0.00 | 0.00 | 0.00 | 46 | 1014.4 |
| 20260504002026 | 52 | 287 | 1.0 | 2.0 | 0.00 | 0.00 | 0.00 | 45 | 1014.4 |
| 20260504001546 | 53 | 287 | 1.0 | 2.0 | 0.00 | 0.00 | 0.00 | 46 | 1014.3 |
| 20260504001030 | 53 | 287 | 0.0 | 2.0 | 0.00 | 0.00 | 0.00 | 44 | 1014.2 |
| 20260504000530 | 54 | 287 | 0.0 | 2.0 | 0.00 | 0.00 | 0.00 | 40 | 1014.2 |
| 20260504000044 | 55 | 287 | 0.0 | 4.0 | 0.00 | 0.00 | 0.00 | 39 | 1014.1 |
| 20260503235530 | 56 | 287 | 0.0 | 4.0 | 0.00 | 0.00 | 0.00 | 36 | 1014.1 |
| 20260503235031 | 57 | 30 | 1.0 | 4.0 | 0.00 | 0.00 | 0.00 | 35 | 1014.0 |
| 20260503234540 | 57 | 0 | 0.0 | 3.0 | 0.00 | 0.00 | 0.00 | 35 | 1014.1 |
| 20260503234030 | 57 | 238 | 1.0 | 6.0 | 0.00 | 0.00 | 0.00 | 34 | 1014.1 |
| 20260503233529 | 58 | 228 | 2.0 | 7.0 | 0.00 | 0.00 | 0.00 | 34 | 1014.1 |
| 20260503233045 | 58 | 303 | 3.0 | 7.0 | 0.00 | 0.00 | 0.00 | 35 | 1014.1 |
| 20260503232530 | 58 | 0 | 2.0 | 4.0 | 0.00 | 0.00 | 0.00 | 35 | 1014.1 |
| 20260503232029 | 59 | 240 | 3.0 | 5.0 | 0.00 | 0.00 | 0.00 | 33 | 1014.0 |
| 20260503231540 | 59 | 252 | 2.0 | 9.0 | 0.00 | 0.00 | 0.00 | 33 | 1013.9 |
| 20260503231031 | 59 | 321 | 4.0 | 9.0 | 0.00 | 0.00 | 0.00 | 33 | 1013.8 |
| 20260503230530 | 59 | 260 | 2.0 | 7.0 | 0.00 | 0.00 | 0.00 | 33 | 1013.8 |
| 20260503230045 | 59 | 296 | 1.0 | 12.0 | 0.00 | 0.00 | 0.00 | 34 | 1013.8 |
| 20260503225530 | 59 | 332 | 5.0 | 12.0 | 0.00 | 0.00 | 0.00 | 33 | 1013.8 |
| 20260503225030 | 59 | 306 | 7.0 | 12.0 | 0.00 | 0.00 | 0.00 | 32 | 1013.8 |
| 20260503224542 | 59 | 239 | 2.0 | 11.0 | 0.00 | 0.00 | 0.00 | 32 | 1013.8 |
| 20260503224030 | 59 | 286 | 5.0 | 12.0 | 0.00 | 0.00 | 0.00 | 32 | 1014.0 |
| 20260503223531 | 59 | 310 | 4.0 | 13.0 | 0.00 | 0.00 | 0.00 | 31 | 1014.0 |
| 20260503223041 | 59 | 222 | 9.0 | 18.0 | 0.00 | 0.00 | 0.00 | 31 | 1014.0 |
| 20260503222529 | 59 | 257 | 7.0 | 18.0 | 0.00 | 0.00 | 0.00 | 32 | 1014.1 |
| 20260503222030 | 59 | 280 | 9.0 | 16.0 | 0.00 | 0.00 | 0.00 | 32 | 1014.0 |
| 20260503221539 | 59 | 284 | 7.0 | 15.0 | 0.00 | 0.00 | 0.00 | 32 | 1013.9 |
| 20260503221034 | 59 | 277 | 7.0 | 15.0 | 0.00 | 0.00 | 0.00 | 33 | 1013.9 |
| 20260503220530 | 58 | 223 | 5.0 | 10.0 | 0.00 | 0.00 | 0.00 | 32 | 1014.0 |
| 20260503220040 | 58 | 303 | 5.0 | 15.0 | 0.00 | 0.00 | 0.00 | 32 | 1013.9 |
| 20260503215529 | 58 | 240 | 5.0 | 18.0 | 0.00 | 0.00 | 0.00 | 32 | 1014.1 |
| 20260503215029 | 58 | 234 | 12.0 | 18.0 | 0.00 | 0.00 | 0.00 | 32 | 1014.1 |
| 20260503214541 | 59 | 247 | 7.0 | 15.0 | 0.00 | 0.00 | 0.00 | 31 | 1014.0 |
| 20260503214029 | 59 | 271 | 5.0 | 14.0 | 0.00 | 0.00 | 0.00 | 34 | 1014.0 |
| 20260503213529 | 59 | 259 | 9.0 | 14.0 | 0.00 | 0.00 | 0.00 | 32 | 1014.0 |
| 20260503213043 | 59 | 306 | 7.0 | 19.0 | 0.00 | 0.00 | 0.00 | 32 | 1013.9 |
| 20260503212528 | 59 | 244 | 7.0 | 19.0 | 0.00 | 0.00 | 0.00 | 30 | 1014.1 |
| 20260503212030 | 59 | 295 | 6.0 | 17.0 | 0.00 | 0.00 | 0.00 | 31 | 1014.0 |
| 20260503211544 | 59 | 188 | 9.0 | 16.0 | 0.00 | 0.00 | 0.00 | 31 | 1014.0 |
| 20260503211030 | 59 | 302 | 8.0 | 18.0 | 0.00 | 0.00 | 0.00 | 31 | 1014.1 |
| 20260503210530 | 58 | 338 | 9.0 | 18.0 | 0.00 | 0.00 | 0.00 | 33 | 1014.0 |
| 20260503210040 | 58 | 338 | 7.0 | 17.0 | 0.00 | 0.00 | 0.00 | 32 | 1014.1 |
| 20260503205533 | 58 | 296 | 12.0 | 20.0 | 0.00 | 0.00 | 0.00 | 31 | 1014.1 |
| 20260503205030 | 58 | 273 | 8.0 | 20.0 | 0.00 | 0.00 | 0.00 | 31 | 1014.1 |
| 20260503204539 | 58 | 271 | 11.0 | 20.0 | 0.00 | 0.00 | 0.00 | 31 | 1014.1 |
| 20260503204030 | 58 | 343 | 6.0 | 17.0 | 0.00 | 0.00 | 0.00 | 32 | 1013.9 |
| 20260503203531 | 58 | 279 | 10.0 | 19.0 | 0.00 | 0.00 | 0.00 | 33 | 1014.0 |
| 20260503203047 | 58 | 315 | 11.0 | 19.0 | 0.00 | 0.00 | 0.00 | 31 | 1014.1 |
| 20260503202530 | 59 | 270 | 4.0 | 18.0 | 0.00 | 0.00 | 0.00 | 33 | 1014.0 |
| 20260503202034 | 58 | 286 | 11.0 | 18.0 | 0.00 | 0.00 | 0.00 | 32 | 1014.0 |
| 20260503201538 | 57 | 308 | 4.0 | 17.0 | 0.00 | 0.00 | 0.00 | 32 | 1014.2 |
| 20260503201027 | 58 | 252 | 10.0 | 17.0 | 0.00 | 0.00 | 0.00 | 31 | 1014.3 |
| 20260503200529 | 58 | 297 | 6.0 | 22.0 | 0.00 | 0.00 | 0.00 | 31 | 1014.2 |
| 20260503200047 | 57 | 202 | 8.0 | 22.0 | 0.00 | 0.00 | 0.00 | 32 | 1014.1 |
| 20260503195530 | 57 | 304 | 11.0 | 22.0 | 0.00 | 0.00 | 0.00 | 32 | 1014.3 |
| 20260503195030 | 57 | 311 | 10.0 | 21.0 | 0.00 | 0.00 | 0.00 | 32 | 1014.4 |
| 20260503194545 | 57 | 294 | 11.0 | 18.0 | 0.00 | 0.00 | 0.00 | 32 | 1014.6 |
| 20260503194032 | 57 | 308 | 7.0 | 18.0 | 0.00 | 0.00 | 0.00 | 34 | 1014.6 |
| 20260503193530 | 57 | 305 | 9.0 | 18.0 | 0.00 | 0.00 | 0.00 | 31 | 1014.7 |
| 20260503193043 | 57 | 280 | 9.0 | 19.0 | 0.00 | 0.00 | 0.00 | 33 | 1014.5 |
| 20260503192530 | 57 | 313 | 7.0 | 19.0 | 0.00 | 0.00 | 0.00 | 32 | 1014.7 |
| 20260503192030 | 57 | 276 | 8.0 | 20.0 | 0.00 | 0.00 | 0.00 | 33 | 1014.7 |
| 20260503191540 | 56 | 265 | 6.0 | 24.0 | 0.00 | 0.00 | 0.00 | 33 | 1014.9 |
| 20260503191032 | 56 | 304 | 10.0 | 24.0 | 0.00 | 0.00 | 0.00 | 33 | 1014.9 |
| 20260503190530 | 56 | 293 | 13.0 | 21.0 | 0.00 | 0.00 | 0.00 | 32 | 1014.9 |
| 20260503190043 | 57 | 352 | 7.0 | 16.0 | 0.00 | 0.00 | 0.00 | 35 | 1014.8 |
| 20260503185529 | 57 | 242 | 7.0 | 18.0 | 0.00 | 0.00 | 0.00 | 34 | 1014.8 |
| 20260503185031 | 56 | 256 | 9.0 | 18.0 | 0.00 | 0.00 | 0.00 | 34 | 1014.9 |
| 20260503184547 | 56 | 277 | 7.0 | 20.0 | 0.00 | 0.00 | 0.00 | 36 | 1015.2 |
| 20260503184030 | 55 | 257 | 6.0 | 21.0 | 0.00 | 0.00 | 0.00 | 34 | 1015.2 |
| 20260503183531 | 55 | 300 | 9.0 | 21.0 | 0.00 | 0.00 | 0.00 | 35 | 1015.1 |
| 20260503183044 | 55 | 240 | 10.0 | 18.0 | 0.00 | 0.00 | 0.00 | 35 | 1015.3 |
| 20260503182538 | 54 | 319 | 9.0 | 19.0 | 0.00 | 0.00 | 0.00 | 37 | 1015.3 |
| 20260503182031 | 54 | 277 | 9.0 | 19.0 | 0.00 | 0.00 | 0.00 | 37 | 1015.4 |
| 20260503181544 | 55 | 352 | 9.0 | 19.0 | 0.00 | 0.00 | 0.00 | 37 | 1015.4 |
| 20260503181027 | 54 | 328 | 10.0 | 19.0 | 0.00 | 0.00 | 0.00 | 36 | 1015.4 |
| 20260503180527 | 54 | 270 | 6.0 | 19.0 | 0.00 | 0.00 | 0.00 | 39 | 1015.5 |
| 20260503180041 | 54 | 292 | 9.0 | 19.0 | 0.00 | 0.00 | 0.00 | 36 | 1015.5 |
| 20260503175527 | 54 | 259 | 8.0 | 19.0 | 0.00 | 0.00 | 0.00 | 38 | 1015.6 |
| 20260503175030 | 54 | 302 | 6.0 | 17.0 | 0.00 | 0.00 | 0.00 | 40 | 1015.4 |
| 20260503174559 | 54 | 169 | 3.0 | 17.0 | 0.00 | 0.00 | 0.00 | 38 | 1015.5 |
| 20260503174034 | 54 | 260 | 9.0 | 17.0 | 0.00 | 0.00 | 0.00 | 40 | 1015.4 |
| 20260503173530 | 54 | 298 | 6.0 | 15.0 | 0.00 | 0.00 | 0.00 | 40 | 1015.6 |
| 20260503173041 | 53 | 310 | 8.0 | 24.0 | 0.00 | 0.00 | 0.00 | 39 | 1015.6 |
| 20260503172527 | 53 | 283 | 11.0 | 24.0 | 0.00 | 0.00 | 0.00 | 39 | 1015.7 |
| 20260503172032 | 53 | 257 | 15.0 | 24.0 | 0.00 | 0.00 | 0.00 | 39 | 1015.7 |
| 20260503171537 | 52 | 279 | 8.0 | 15.0 | 0.00 | 0.00 | 0.00 | 41 | 1015.7 |
| 20260503171028 | 53 | 301 | 6.0 | 24.0 | 0.00 | 0.00 | 0.00 | 41 | 1015.8 |
| 20260503170530 | 52 | 294 | 9.0 | 24.0 | 0.00 | 0.00 | 0.00 | 40 | 1015.7 |
| 20260503150531 | 47 | 319 | 14.0 | 22.0 | 0.00 | 0.00 | 0.00 | 43 | 1016.6 |
| 20260503131032 | 44 | 324 | 11.0 | 18.0 | 0.00 | 0.00 | 0.00 | 53 | 1016.8 |
| 20260503130530 | 44 | 286 | 10.0 | 19.0 | 0.00 | 0.00 | 0.00 | 55 | 1016.6 |
| 20260503110532 | 39 | 264 | 4.0 | 8.0 | 0.00 | 0.00 | 0.00 | 71 | 1015.6 |